User: anonymous   Login
Location: Unspecified
(0.0000°N, 0.0000°E)
Time: 18:15:11
(UTC+02:00)
Language:

PSLV R/B - Orbit

View from above orbital plane
View from above orbital plane
View from above satellite
View from above satellite

Ground track
Ground track

The orbit data is extracted from the following two-line orbital elements,

1 29713U 07001E   16180.53391360  .00000211  00000-0  30920-4 0  9998
2 29713  97.7179 157.0601 0025419 173.2452 186.9111 14.84808611511587
Epoch (UTC): 28 June 2016 12:48:50
Eccentricity: 0.0025419
inclination: 97.7179°
perigee height: 596 km
apogee height: 632 km
right ascension of ascending node: 157.0601°
argument of perigee: 173.2452°
revolutions per day: 14.84808611
mean anomaly at epoch: 186.9111°
orbit number at epoch: 51158

The dashed part of the orbit path shows where the satellite is in the earth's shadow,  

DLR